Weather in Ungen

Moldova     47°12′39″N   27°47′56″E
temp.,
°C
wind,
m/s
gust,
m/s
humid.,
%
clouds,
%
prec.,
mm/h
press.,
hPa
HPBL,
m
16 may, sun
sun1600:00+14ene227597 0.3 101022
03:00+12se2284100 0.3 101019
06:00+12se2285100 0.0 101015
09:00+17se4563100 0.0 1010428
12:00+21sse574780 0.0 10091229
15:00+23sse673966 0.0 10082156
18:00+23sse354890 0.0 10072059
21:00+18ese1162100 0.0 100711
17 may, mon
mon1700:00+14se127120 0.0 100611
03:00+13ene007897 0.1 100610
06:00+13w229143 0.5 100623
09:00+17nw45788 0.5 1006547
12:00+21nw43595 0.1 10051101
15:00+23wsw335113 0.9 10031749
18:00+22sw125163 0.6 10021589
21:00+18sse226888 0.6 100211
18 may, tue
tue1800:00+15ese2274100 0.1 100114
03:00+14se4980100 0.1 1000290
06:00+13sse2596100 0.8 999210
09:00+14w61192100 3.0 1000674
12:00+12wsw71291100 1.5 1001661
15:00+11wsw71391100 4.0 10021053
18:00+11w101892100 6.3 10031052
21:00+11wnw112189100 15.8 10041207
19 may, wed
wed1900:00+11wnw101989100 1.8 1006997
03:00+11wnw91788100 2.4 1007965
06:00+11wnw61682100 1.1 1008793
09:00+15wnw8157160 1.1 10091453
12:00+18nw9135872 0.0 10101829
15:00+20nw794935 0.0 10102028
18:00+20nnw445215 0.0 10111368
21:00+14ne22725 0.0 101113
20 may, thu
thu2000:00+12ese11775 0.0 101110
03:00+11e1180100 0.0 101110
06:00+12ene118091 0.0 101011
09:00+16se3471100 0.0 1009436
12:00+13se2494100 8.1 1010226
15:00+17ssw1475100 8.8 1009497
18:00+15ne1184100 0.5 100934
21:00+12nw5996100 0.8 1010404